• In Deutschland
  • Länderverzeichnis
  • Für 7 Tage
  • Wassertemperatur
  • Satellitenkarten
  • Wetterkarte
  • Widgets
  • user-avatar
    Anmelden

    Stündliche Wetter Końskie

    Heute, 13 Dezember, Mittwoch

    Zeit Temperatur Niederschläge Wind Luftdruck Luftfeuchtigkeit
    00:00 +1°C° 0 mm 5 m/S 739 mmHg 65%
    01:00 +1°C° 0 mm 4 m/S 739 mmHg 66%
    02:00 0°C° 0 mm 4 m/S 739 mmHg 68%
    03:00 0°C° 0 mm 4 m/S 739 mmHg 70%
    04:00 0°C° 0 mm 4 m/S 740 mmHg 72%
    05:00 -1°C° 0 mm 4 m/S 740 mmHg 76%
    06:00 0°C° 0 mm 3 m/S 740 mmHg 80%
    07:00 -1°C° 0 mm 2 m/S 741 mmHg 85%
    08:00 -1°C° 0 mm 2 m/S 741 mmHg 83%
    09:00 0°C° 0 mm 3 m/S 741 mmHg 80%
    10:00 0°C° 0 mm 3 m/S 741 mmHg 78%
    11:00 +1°C° 0 mm 3 m/S 741 mmHg 75%
    12:00 +2°C° 0 mm 2 m/S 741 mmHg 72%
    13:00 +3°C° 0 mm 2 m/S 741 mmHg 69%
    14:00 +2°C° 0 mm 2 m/S 740 mmHg 72%
    15:00 +2°C° 0 mm 2 m/S 740 mmHg 75%
    16:00 +1°C° 0 mm 2 m/S 739 mmHg 78%
    17:00 +1°C° 0 mm 2 m/S 739 mmHg 78%
    18:00 -1°C° 0 mm 3 m/S 738 mmHg 79%
    19:00 -1°C° 0 mm 3 m/S 737 mmHg 79%
    20:00 -1°C° 0 mm 3 m/S 737 mmHg 78%
    21:00 -2°C° 0 mm 4 m/S 736 mmHg 78%
    22:00 -2°C° 0 mm 4 m/S 735 mmHg 77%
    23:00 -2°C° 0 mm 4 m/S 734 mmHg 75%

    Morgen, 14 Dezember, Donnerstag

    Zeit Temperatur Niederschläge Wind Luftdruck Luftfeuchtigkeit
    00:00 -2°C° 0 mm 5 m/S 733 mmHg 73%
    01:00 -2°C° 0 mm 5 m/S 732 mmHg 71%
    02:00 -2°C° 0 mm 5 m/S 731 mmHg 69%
    03:00 -2°C° 0 mm 5 m/S 730 mmHg 67%
    04:00 -1°C° 0 mm 5 m/S 729 mmHg 64%
    05:00 -2°C° 0 mm 6 m/S 729 mmHg 63%
    06:00 -2°C° 0 mm 6 m/S 728 mmHg 62%
    07:00 -2°C° 0 mm 6 m/S 727 mmHg 60%
    08:00 -1°C° 0,2 mm 6 m/S 727 mmHg 61%
    09:00 0°C° 0,2 mm 7 m/S 726 mmHg 62%
    10:00 +2°C° 0,2 mm 7 m/S 726 mmHg 63%
    11:00 +2°C° 0 mm 7 m/S 726 mmHg 63%
    12:00 +3°C° 0 mm 7 m/S 726 mmHg 63%
    13:00 +3°C° 0 mm 7 m/S 726 mmHg 63%
    14:00 +3°C° 0 mm 7 m/S 726 mmHg 61%
    15:00 +1°C° 0 mm 8 m/S 726 mmHg 59%
    16:00 0°C° 0 mm 8 m/S 726 mmHg 57%
    17:00 0°C° 0 mm 8 m/S 727 mmHg 60%
    18:00 -1°C° 0 mm 7 m/S 728 mmHg 62%
    19:00 -1°C° 0 mm 7 m/S 729 mmHg 65%
    20:00 -1°C° 0 mm 7 m/S 729 mmHg 65%
    21:00 -2°C° 0 mm 6 m/S 729 mmHg 65%
    22:00 -2°C° 0 mm 6 m/S 730 mmHg 65%
    23:00 -1°C° 0 mm 5 m/S 729 mmHg 66%

    übermorgen, 15 Dezember, Freitag

    Zeit Temperatur Niederschläge Wind Luftdruck Luftfeuchtigkeit
    00:00 -1°C° 0 mm 5 m/S 729 mmHg 67%
    01:00 -2°C° 0 mm 5 m/S 729 mmHg 68%
    02:00 -1°C° 0 mm 5 m/S 728 mmHg 67%
    03:00 -1°C° 0 mm 5 m/S 728 mmHg 65%
    04:00 -1°C° 0 mm 4 m/S 727 mmHg 64%
    05:00 -1°C° 0 mm 5 m/S 727 mmHg 64%
    06:00 -1°C° 0 mm 5 m/S 726 mmHg 64%
    07:00 -1°C° 0 mm 5 m/S 726 mmHg 64%
    08:00 0°C° 0,1 mm 5 m/S 726 mmHg 65%
    09:00 +1°C° 0,1 mm 5 m/S 726 mmHg 65%
    10:00 +1°C° 0,1 mm 6 m/S 726 mmHg 66%
    11:00 +2°C° 0,3 mm 6 m/S 726 mmHg 69%
    12:00 +2°C° 0,3 mm 6 m/S 726 mmHg 72%
    13:00 +2°C° 0,3 mm 7 m/S 726 mmHg 74%
    14:00 +1°C° 0 mm 6 m/S 727 mmHg 76%
    15:00 +1°C° 0 mm 5 m/S 728 mmHg 78%
    16:00 0°C° 0 mm 5 m/S 728 mmHg 80%
    17:00 0°C° 0 mm 4 m/S 729 mmHg 82%
    18:00 -1°C° 0 mm 4 m/S 730 mmHg 83%
    19:00 0°C° 0 mm 3 m/S 730 mmHg 84%
    20:00 -1°C° 0 mm 3 m/S 730 mmHg 84%
    21:00 -1°C° 0 mm 2 m/S 730 mmHg 83%
    22:00 -1°C° 0 mm 2 m/S 731 mmHg 82%
    23:00 -1°C° 0 mm 2 m/S 730 mmHg 81%

    16 Dezember, Samstag

    Zeit Temperatur Niederschläge Wind Luftdruck Luftfeuchtigkeit
    00:00 +1°C° 0 mm 1 m/S 730 mmHg 80%
    01:00 +1°C° 0 mm 1 m/S 730 mmHg 79%
    02:00 +1°C° 0 mm 1 m/S 730 mmHg 78%
    03:00 +1°C° 0 mm 1 m/S 730 mmHg 78%
    04:00 +1°C° 0 mm 1 m/S 730 mmHg 77%
    05:00 +1°C° 0 mm 1 m/S 730 mmHg 77%
    06:00 +1°C° 0 mm 1 m/S 730 mmHg 76%
    07:00 +1°C° 0 mm 1 m/S 730 mmHg 76%
    08:00 +1°C° 0 mm 1 m/S 730 mmHg 75%
    09:00 +2°C° 0 mm 1 m/S 731 mmHg 74%
    10:00 +2°C° 0 mm 1 m/S 731 mmHg 72%
    11:00 +1°C° 0 mm 2 m/S 731 mmHg 72%
    12:00 +2°C° 0 mm 2 m/S 731 mmHg 72%
    13:00 +1°C° 0 mm 3 m/S 731 mmHg 72%
    14:00 0°C° 0 mm 3 m/S 732 mmHg 76%
    15:00 0°C° 0 mm 3 m/S 732 mmHg 81%
    16:00 +1°C° 0 mm 2 m/S 733 mmHg 85%
    17:00 0°C° 0 mm 3 m/S 733 mmHg 86%
    18:00 0°C° 0 mm 3 m/S 734 mmHg 86%
    19:00 -1°C° 0 mm 3 m/S 734 mmHg 87%
    20:00 -1°C° 0 mm 3 m/S 735 mmHg 87%
    21:00 -2°C° 0 mm 4 m/S 735 mmHg 86%
    22:00 -2°C° 0 mm 4 m/S 735 mmHg 85%
    23:00 -1°C° 0 mm 3 m/S 736 mmHg 84%

    17 Dezember, Sonntag

    Zeit Temperatur Niederschläge Wind Luftdruck Luftfeuchtigkeit
    00:00 -1°C° 0 mm 3 m/S 736 mmHg 83%
    01:00 -1°C° 0 mm 3 m/S 737 mmHg 82%
    02:00 -1°C° 0 mm 3 m/S 737 mmHg 83%
    03:00 -1°C° 0 mm 3 m/S 737 mmHg 85%
    04:00 -1°C° 0 mm 3 m/S 737 mmHg 86%
    05:00 -1°C° 0 mm 3 m/S 737 mmHg 86%
    06:00 -1°C° 0 mm 3 m/S 738 mmHg 86%
    07:00 -1°C° 0 mm 3 m/S 738 mmHg 86%
    08:00 -1°C° 0 mm 3 m/S 738 mmHg 85%
    09:00 -1°C° 0 mm 3 m/S 739 mmHg 83%
    10:00 -2°C° 0 mm 4 m/S 739 mmHg 81%
    11:00 -1°C° 0 mm 4 m/S 739 mmHg 80%
    12:00 -1°C° 0 mm 4 m/S 739 mmHg 79%
    13:00 -1°C° 0 mm 4 m/S 739 mmHg 77%
    14:00 -1°C° 0 mm 4 m/S 739 mmHg 79%
    15:00 -1°C° 0 mm 3 m/S 739 mmHg 82%
    16:00 -1°C° 0 mm 3 m/S 739 mmHg 84%
    17:00 -1°C° 0,1 mm 2 m/S 740 mmHg 86%
    18:00 -1°C° 0,1 mm 2 m/S 740 mmHg 87%
    19:00 -1°C° 0,1 mm 2 m/S 740 mmHg 89%
    20:00 -1°C° 0,2 mm 2 m/S 740 mmHg 90%
    21:00 -2°C° 0,2 mm 2 m/S 740 mmHg 91%
    22:00 -2°C° 0,2 mm 3 m/S 741 mmHg 91%
    23:00 -2°C° 0,1 mm 3 m/S 741 mmHg 91%

    18 Dezember, Montag

    Zeit Temperatur Niederschläge Wind Luftdruck Luftfeuchtigkeit
    00:00 -2°C° 0,1 mm 3 m/S 741 mmHg 92%
    01:00 -2°C° 0,1 mm 3 m/S 741 mmHg 92%
    02:00 -2°C° 0,1 mm 3 m/S 741 mmHg 91%
    03:00 -2°C° 0,1 mm 3 m/S 742 mmHg 91%
    04:00 -2°C° 0,1 mm 3 m/S 742 mmHg 90%
    05:00 -2°C° 0 mm 3 m/S 742 mmHg 91%
    06:00 -2°C° 0 mm 3 m/S 743 mmHg 91%
    07:00 -2°C° 0 mm 3 m/S 743 mmHg 91%
    08:00 -2°C° 0 mm 3 m/S 743 mmHg 89%
    09:00 -2°C° 0 mm 3 m/S 743 mmHg 88%
    10:00 -2°C° 0 mm 3 m/S 744 mmHg 86%
    11:00 -2°C° 0,1 mm 4 m/S 744 mmHg 85%
    12:00 -2°C° 0,1 mm 4 m/S 743 mmHg 84%
    13:00 -2°C° 0,1 mm 4 m/S 743 mmHg 83%
    14:00 -1°C° 0,1 mm 3 m/S 744 mmHg 84%
    15:00 -2°C° 0,1 mm 3 m/S 744 mmHg 86%
    16:00 -2°C° 0,1 mm 3 m/S 744 mmHg 87%
    17:00 -2°C° 0 mm 3 m/S 744 mmHg 87%
    18:00 -4°C° 0 mm 3 m/S 745 mmHg 87%
    19:00 -4°C° 0 mm 3 m/S 745 mmHg 87%
    20:00 -3°C° 0 mm 2 m/S 745 mmHg 86%
    21:00 -3°C° 0 mm 2 m/S 746 mmHg 85%
    22:00 -3°C° 0 mm 2 m/S 746 mmHg 85%
    23:00 -3°C° 0 mm 2 m/S 747 mmHg 84%
    Mehr zeigen